Location: Brusselsch Zeekanaal
(50.8667°N, 4.3667°E)
Time: 07:01:42
(UTC+00:00)

Cosmos 1908 Rocket - Pass Details

Date: 08 November 2025
Orbit: 599 x 625 km, 82.5° (Epoch: 11 December)

Event Time Altitude Azimuth Distance (km) Brightness Sun altitude
Exits shadow 04:09:36 - 352° (N) 2,694 6.8 -24.9°
Reaches altitude 10° 04:11:19 10° 356° (N) 2,012 6.2 -24.6°
Maximum altitude 04:15:44 62° 77° (ENE) 709 4.0 -23.9°
Drops below altitude 10° 04:20:06 10° 158° (SSE) 1,987 6.4 -23.2°
Sets 04:22:20 0° 162° (SSE) 2,884 7.2 -22.9°
